[[{"header":{"parameterUnit":"m.s-1","parameterCategory":1,"la1":30.2991,"la2":30.254,"lo1":-89.0895,"lo2":-89.0444,"dy":0.0017,"dx":0.0017,"nx":28,"ny":28,"refTime":"2026-01-09T03:00:00:Z","depth":0,"parameterNumber":2,"parameterNumberName":"U-component_of_WINDS"},"data":[0,0,0,0,0,0,0,0,0,0,0,0,0,0,0,0,0,0,0,0,0,0,0,0,0,0,0,0,0,0,0,0,0,0,0,0,0,0,0,0,0,0,0,0,0,0,0,0,0,0,0,0,0,0,0,0,0,0,1.7971,1.7971,0,1.796,1.796,1.796,1.795,1.795,1.795,1.795,1.7939,1.7939,1.7939,0,0,0,0,0,0,0,0,0,0,0,0,0,1.7986,1.7985,1.7971,1.7971,1.7971,1.796,1.796,1.796,1.795,1.795,1.795,1.795,1.7939,1.7939,1.7939,0,0,0,0,0,0,0,0,0,0,0,0,0,1.7977,1.7985,1.7971,1.7965,1.7964,1.796,1.796,1.796,1.795,1.795,1.795,1.795,1.7939,1.7939,1.7939,1.7941,0,0,1.7938,1.7938,0,0,0,0,0,0,0,0,1.7978,1.7977,1.7966,1.7965,1.7964,1.7956,1.7961,1.7953,1.795,1.7955,1.795,1.7949,1.7945,1.7944,1.7943,1.794,1.794,1.7938,1.7938,1.7938,1.7938,0,0,0,0,0,0,0,1.7979,1.7977,1.7967,1.7966,1.7965,1.7963,1.7962,1.796,1.7951,1.7955,1.7954,1.7953,1.7945,1.7943,1.7942,1.794,1.7938,1.7938,1.7937,1.7937,1.7942,1.7942,0,0,0,0,0,0,1.798,1.7978,1.7967,1.7966,1.7971,1.7963,1.7961,1.7959,1.7951,1.795,1.7953,1.7952,1.7943,1.7943,1.7942,1.7945,1.7938,1.7937,1.7937,1.7941,1.7942,1.7942,0,0,0,0,0,0,1.798,1.7979,1.7968,1.7972,1.797,1.7963,1.796,1.7959,1.7957,1.795,1.7949,1.7953,1.7943,1.7942,1.7942,1.7945,1.7937,1.7937,1.7941,1.7942,1.7942,1.7952,0,0,0,0,0,0,1.7981,1.7979,1.7979,1.7972,1.797,1.7967,1.796,1.7959,1.7957,1.7956,1.7949,1.7948,1.7943,1.7942,1.7941,1.7944,1.7937,1.7941,1.7941,1.7942,1.7951,1.7952,1.7954,0,0,0,0,0,1.7981,1.7982,1.7979,1.7978,1.797,1.7967,1.7966,1.796,1.7957,1.7957,1.7953,1.7948,1.7945,1.7942,1.7941,1.7944,1.7941,1.7941,1.7942,1.795,1.7952,1.7953,0,0,0,0,0,0,1.7988,1.798,1.7977,1.7975,1.7972,1.7965,1.7965,1.7961,1.7958,1.7958,1.7951,1.795,1.795,1.7947,1.7944,1.7948,1.7942,1.7943,1.7949,1.7951,1.7952,1.7953,1.7937,0,0,0,0,0,1.799,1.7988,1.7981,1.798,1.7979,1.7972,1.7971,1.7967,1.7963,1.7961,1.7957,1.7954,1.7953,1.7951,1.7949,1.7951,1.7951,1.7953,1.7954,1.7955,1.7956,1.7959,1.796,1.7944,1.7944,1.7944,0,0,1.7993,1.7988,1.7987,1.7982,1.7978,1.7977,1.7971,1.7969,1.7969,1.7961,1.7961,1.7958,1.7954,1.7955,1.7956,1.7953,1.7961,1.7956,1.7957,1.7957,1.796,1.7961,1.7963,1.7945,1.7944,1.7944,0,0,1.7997,1.7993,1.7993,1.799,1.7986,1.7982,1.7982,1.7977,1.7975,1.7974,1.7969,1.7969,1.7966,1.7965,1.7963,1.7971,1.7967,1.7971,1.7977,1.798,1.7981,1.7983,1.7987,1.7988,1.7971,1.7971,1.7971,0,1.8001,1.7998,1.7993,1.7992,1.7991,1.7985,1.7986,1.7984,1.7979,1.7979,1.7976,1.7974,1.7971,1.7973,1.7975,1.7974,1.7975,1.7971,1.7982,1.7983,1.7984,1.7988,1.7989,1.7972,1.7972,1.7972,1.7972,0,1.8004,1.8003,1.8003,1.8,1.7999,1.7998,1.7994,1.7994,1.7991,1.7989,1.799,1.7987,1.7985,1.7985,1.7982,1.7988,1.7987,1.7983,1.7977,1.7986,1.799,1.7991,1.7973,1.7972,1.7972,1.7972,0,0,1.801,1.8006,1.8006,1.8006,1.8002,1.8001,1.8003,1.8001,1.8002,1.8,1.8002,1.8001,1.7999,1.7997,1.7994,1.7997,1.8006,1.7993,1.7993,1.7997,1.8015,1.8018,1.8019,1.8004,1.8004,1.8004,1.8015,0,1.8015,1.8015,1.8012,1.8014,1.8014,1.801,1.8011,1.801,1.8008,1.8009,1.8007,1.8008,1.8003,1.8003,1.8006,1.8004,1.8009,1.8003,1.8006,1.8007,1.8007,1.8021,1.8023,1.8034,1.8017,1.8017,1.8017,0,1.8019,1.8018,1.802,1.8019,1.8019,1.802,1.802,1.802,1.802,1.8019,1.8019,1.8017,1.8019,1.8015,1.802,1.8016,1.8017,1.8017,1.8018,1.8017,1.8012,1.8022,1.8037,1.8039,1.8019,1.8019,1.8019,0,1.8025,1.8024,1.8026,1.8026,1.8024,1.8025,1.8025,1.8024,1.8025,1.8026,1.8026,1.8027,1.8028,1.803,1.8028,1.8025,1.8034,1.8029,1.8035,1.8035,1.8036,1.8036,1.8052,1.8037,1.8037,1.8037,1.8037,0,1.803,1.8031,1.8029,1.803,1.8033,1.803,1.8033,1.8033,1.8033,1.8035,1.8032,1.8034,1.8032,1.8035,1.8034,1.8039,1.8039,1.804,1.8039,1.804,1.804,1.8041,1.804,1.8037,1.8037,1.8037,1.8037,0,1.8036,1.8034,1.8036,1.8035,1.8035,1.8038,1.8038,1.8039,1.8039,1.8042,1.8043,1.8042,1.8045,1.8044,1.8048,1.8047,1.8055,1.8053,1.8055,1.8054,1.8061,1.806,1.8077,1.808,1.8063,1.8063,1.8063,0,1.8039,1.804,1.804,1.8042,1.8042,1.8043,1.8045,1.8043,1.8045,1.8047,1.8049,1.8052,1.8055,1.8061,1.8061,1.8065,1.8064,1.807,1.8064,1.8066,1.8065,1.8066,1.8067,1.8071,1.8071,1.8071,1.8071,0,1.8045,1.8045,1.8046,1.8048,1.805,1.8051,1.8053,1.8054,1.8053,1.8056,1.8059,1.8062,1.8066,1.8071,1.8075,1.8076,1.8074,1.8074,1.8075,1.8076,1.8077,1.8078,1.8058,1.8073,1.8073,1.8072,1.8072,1.8072,1.805,1.8052,1.8053,1.8056,1.8057,1.8059,1.8062,1.8063,1.8065,1.8069,1.8069,1.8074,1.8077,1.8082,1.8084,1.8089,1.8087,1.8089,1.8089,1.809,1.8091,1.8076,1.8089,1.8089,1.8089,1.8089,1.8089,0,1.8057,1.8058,1.8061,1.8063,1.8066,1.8065,1.8067,1.807,1.8074,1.8077,1.808,1.8086,1.8091,1.8093,1.8099,1.8103,1.8102,1.8104,1.8104,1.8105,1.8092,1.8091,1.8105,1.8105,1.8105,1.8105,1.8105,1.8105,1.806,1.8065,1.8065,1.8071,1.8073,1.8077,1.8079,1.8082,1.8085,1.8091,1.8096,1.8097,1.8101,1.8107,1.8112,1.8113,1.8116,1.8118,1.8119,1.8107,1.8105,1.8104,1.8102,1.8119,1.8119,1.8131,1.8131,1.8131]},{"header":{"parameterUnit":"m.s-1","parameterCategory":1,"la1":30.2991,"la2":30.254,"lo1":-89.0895,"lo2":-89.0444,"dy":0.0017,"dx":0.0017,"nx":28,"ny":28,"refTime":"2026-01-09T03:00:00:Z","depth":0,"parameterNumber":3,"parameterNumberName":"V-component_of_WINDS"},"data":[0,0,0,0,0,0,0,0,0,0,0,0,0,0,0,0,0,0,0,0,0,0,0,0,0,0,0,0,0,0,0,0,0,0,0,0,0,0,0,0,0,0,0,0,0,0,0,0,0,0,0,0,0,0,0,0,0,0,-5.5799,-5.58,0,-5.5908,-5.5909,-5.591,-5.5884,-5.5882,-5.5879,-5.5877,-5.5985,-5.5989,-5.5994,0,0,0,0,0,0,0,0,0,0,0,0,0,-5.5567,-5.5572,-5.5799,-5.58,-5.5802,-5.5908,-5.5909,-5.5911,-5.5884,-5.5881,-5.5879,-5.5876,-5.5983,-5.5989,-5.5995,0,0,0,0,0,0,0,0,0,0,0,0,0,-5.5671,-5.5573,-5.5799,-5.5801,-5.5803,-5.5907,-5.5909,-5.5911,-5.5885,-5.5881,-5.5878,-5.5875,-5.5981,-5.5988,-5.5995,-5.6103,0,0,-5.6018,-5.6021,0,0,0,0,0,0,0,0,-5.5665,-5.5679,-5.58,-5.5801,-5.5803,-5.5879,-5.5867,-5.5975,-5.5885,-5.5853,-5.5877,-5.5874,-5.5952,-5.5961,-5.5988,-5.6108,-5.6113,-5.6018,-5.6023,-5.6026,-5.6028,0,0,0,0,0,0,0,-5.5658,-5.5675,-5.5842,-5.5801,-5.5804,-5.5797,-5.5808,-5.5887,-5.5919,-5.5856,-5.5854,-5.5868,-5.5952,-5.5982,-5.5991,-5.6114,-5.6018,-5.6024,-5.6029,-5.6032,-5.633,-5.6334,0,0,0,0,0,0,-5.565,-5.5669,-5.5838,-5.5845,-5.5725,-5.5803,-5.5816,-5.5858,-5.5918,-5.5924,-5.587,-5.5866,-5.5971,-5.5982,-5.5994,-5.6127,-5.6026,-5.6032,-5.6037,-5.6327,-5.6331,-5.6335,0,0,0,0,0,0,-5.5645,-5.5665,-5.5834,-5.5757,-5.5778,-5.5811,-5.5858,-5.5862,-5.5891,-5.5929,-5.5934,-5.5895,-5.5969,-5.5984,-5.6077,-5.613,-5.6036,-5.6042,-5.6322,-5.6328,-5.6333,-5.639,0,0,0,0,0,0,-5.5638,-5.5663,-5.5705,-5.5758,-5.5782,-5.5916,-5.5861,-5.5866,-5.5904,-5.5899,-5.5953,-5.5959,-5.5968,-5.6067,-5.6084,-5.6138,-5.6048,-5.6318,-5.6325,-5.6331,-5.6384,-5.6397,-5.6408,0,0,0,0,0,-5.563,-5.5715,-5.5707,-5.5728,-5.5835,-5.5919,-5.5932,-5.5942,-5.5908,-5.595,-5.5975,-5.5957,-5.6121,-5.6076,-5.6096,-5.6153,-5.6315,-5.6323,-5.6331,-5.6378,-5.6394,-5.6408,0,0,0,0,0,0,-5.5665,-5.5722,-5.5714,-5.5818,-5.5864,-5.5914,-5.5967,-5.5958,-5.6013,-5.6006,-5.6014,-5.6027,-5.6122,-5.6146,-5.6096,-5.6261,-5.6213,-5.6225,-5.6242,-5.6258,-5.627,-5.6262,-5.6054,0,0,0,0,0,-5.5686,-5.575,-5.5796,-5.5884,-5.5907,-5.5934,-5.597,-5.5974,-5.6021,-5.604,-5.6071,-5.6117,-5.6179,-5.6219,-5.6278,-5.6387,-5.6399,-5.6436,-5.6448,-5.6458,-5.6469,-5.653,-5.6548,-5.6362,-5.6361,-5.6361,0,0,-5.5727,-5.5766,-5.5806,-5.5892,-5.5928,-5.5995,-5.595,-5.6021,-5.6071,-5.605,-5.6141,-5.6166,-5.6217,-5.6319,-5.6366,-5.6342,-5.6523,-5.6468,-5.6476,-5.6481,-5.654,-5.6558,-5.6574,-5.6367,-5.6366,-5.6365,0,0,-5.5839,-5.5874,-5.5953,-5.599,-5.6046,-5.6064,-5.6083,-5.6135,-5.6151,-5.6243,-5.6229,-5.6288,-5.6394,-5.6432,-5.6465,-5.6594,-5.658,-5.6613,-5.6677,-5.6736,-5.6751,-5.6764,-5.6812,-5.6829,-5.6623,-5.6623,-5.6623,0,-5.5883,-5.5984,-5.5994,-5.6068,-5.6107,-5.6094,-5.6174,-5.6209,-5.6281,-5.6308,-5.6281,-5.6416,-5.6449,-5.6562,-5.6593,-5.662,-5.6643,-5.6607,-5.6748,-5.6762,-5.6774,-5.682,-5.6837,-5.6627,-5.6627,-5.6626,-5.6626,0,-5.6038,-5.6108,-5.6165,-5.6237,-5.6282,-5.6359,-5.638,-5.6424,-5.6425,-5.6445,-5.6539,-5.6579,-5.6647,-5.6674,-5.6673,-5.6787,-5.6771,-5.6746,-5.6698,-5.6795,-5.6839,-5.6856,-5.6632,-5.6631,-5.663,-5.6629,0,0,-5.6173,-5.6252,-5.6273,-5.6307,-5.6369,-5.6423,-5.6499,-5.6568,-5.6607,-5.6657,-5.6722,-5.6813,-5.6792,-5.683,-5.6834,-5.6886,-5.6988,-5.6855,-5.6857,-5.688,-5.7118,-5.7137,-5.7157,-5.6979,-5.6983,-5.6985,-5.7114,0,-5.6291,-5.6428,-5.644,-5.6563,-5.6629,-5.6618,-5.6685,-5.673,-5.6752,-5.681,-5.6833,-5.6899,-5.6864,-5.6888,-5.6939,-5.6965,-5.7036,-5.6956,-5.704,-5.7043,-5.7029,-5.7179,-5.7199,-5.7319,-5.7131,-5.7133,-5.7136,0,-5.6447,-5.6505,-5.6635,-5.669,-5.6718,-5.6779,-5.6844,-5.69,-5.6951,-5.6963,-5.7007,-5.7005,-5.7084,-5.7032,-5.7142,-5.7087,-5.7122,-5.714,-5.7145,-5.7154,-5.7096,-5.7194,-5.7357,-5.7375,-5.7162,-5.716,-5.7158,0,-5.6535,-5.6645,-5.6738,-5.6767,-5.6833,-5.6877,-5.6906,-5.6954,-5.6996,-5.7052,-5.7079,-5.7143,-5.7179,-5.7228,-5.7243,-5.7204,-5.7353,-5.7302,-5.7366,-5.7366,-5.7398,-5.7396,-5.7571,-5.7418,-5.7418,-5.7418,-5.7417,0,-5.6667,-5.6747,-5.678,-5.6837,-5.6927,-5.694,-5.7029,-5.7056,-5.71,-5.7162,-5.7155,-5.7213,-5.7229,-5.729,-5.7302,-5.7392,-5.7408,-5.742,-5.7422,-5.7421,-5.742,-5.7445,-5.7438,-5.7423,-5.7422,-5.7421,-5.742,0,-5.6781,-5.6806,-5.6907,-5.6962,-5.6978,-5.7043,-5.709,-5.7145,-5.7166,-5.7245,-5.7264,-5.7297,-5.7369,-5.7389,-5.7474,-5.7482,-5.7589,-5.7582,-5.7572,-5.7572,-5.7635,-5.763,-5.7833,-5.7861,-5.7689,-5.7691,-5.7692,0,-5.6864,-5.6927,-5.699,-5.7032,-5.7064,-5.7132,-5.7175,-5.719,-5.7235,-5.73,-5.7348,-5.7419,-5.7478,-5.7593,-5.7624,-5.7689,-5.7686,-5.7752,-5.7695,-5.7693,-5.7689,-5.7686,-5.7693,-5.7763,-5.7765,-5.7767,-5.7768,0,-5.701,-5.702,-5.7083,-5.7152,-5.7204,-5.7258,-5.731,-5.7344,-5.7367,-5.7418,-5.7493,-5.7538,-5.7627,-5.7699,-5.7766,-5.7795,-5.7786,-5.7786,-5.7804,-5.7805,-5.7797,-5.7804,-5.7603,-5.7781,-5.778,-5.7779,-5.7778,-5.7778,-5.7113,-5.7169,-5.7223,-5.7294,-5.7336,-5.7385,-5.7441,-5.747,-5.7533,-5.7608,-5.7613,-5.7694,-5.7745,-5.7835,-5.7868,-5.7932,-5.7912,-5.7938,-5.7945,-5.7951,-5.7958,-5.7786,-5.7943,-5.7943,-5.7943,-5.7942,-5.7942,0,-5.726,-5.7295,-5.7361,-5.7435,-5.7491,-5.748,-5.7537,-5.7585,-5.7657,-5.7706,-5.7765,-5.7852,-5.7921,-5.7958,-5.8028,-5.8072,-5.8069,-5.8089,-5.8087,-5.8094,-5.7971,-5.7949,-5.809,-5.809,-5.809,-5.809,-5.809,-5.809,-5.7343,-5.7439,-5.7455,-5.7571,-5.7605,-5.7686,-5.772,-5.7766,-5.7806,-5.7904,-5.7963,-5.7987,-5.8032,-5.8105,-5.8168,-5.8177,-5.8204,-5.8227,-5.8234,-5.8118,-5.8103,-5.8088,-5.8068,-5.8232,-5.8232,-5.8352,-5.8353,-5.8354]}]]